Starlink 34564

operational
NORAD ID: 64852 Int'l Des: 2025-152 Owner: SPXS Country: US Constellation: starlink
LEOCIRCULARRETROGRADESSO

Starlink 34564について

説明を読み込み中...

リアルタイム位置

3D地球を読み込み中...

次回通過

高度履歴

Altitude vs Time

uPlot chart will show altitude changes over time

軌道要素

1 64852U 25152L 25341.02196393 .00010584 00000-0 73626-3 0 9993
2 64852 97.6032 194.1655 0001759 77.2292 282.9131 15.05668709 21473
Epoch: Dec 7, 2025 • Age: 21 hours

現在のステータス

高度 552.8 km
速度 7.59 km/s
衛星直下点 28.85°N, 26.63°W
打ち上げ日 Jul 19, 2025
運用期間 0.3 years
タイプ internet

技術仕様

分類 Payload
質量 575.00 kg
乾燥質量 530.00 kg
総質量 575.00 kg
長さ 0.30 m
直径 4.10 m
スパン 29.00 m
形状 Box + pan
製造者 SPXS
バスタイプ Starlink V2MO
フェーズステータス In Orbit
所有者/国 SPXS/US

大規模コンステレーション

Loading constellations...